www.pogodaiklimat.ru

Погода и климат >> Архив погоды >> Италия >> Понца


ПОГОДА на Понце

  • Прогноз погоды на Понце
  • Монитор погоды на Понце

АРХИВ ПОГОДЫ на Понце

Время (UTC), дата Ветер
(напр.,м/с)
 
Видим.   Явления Облачность Т
(С)
Тd
(С)
f
(%)
Тe
(С)
Тes
(С)
Комфортность P
(гПа)
Po
(гПа)
Тmin
(С)
Tmax
(С)
R
(мм)
R24
(мм)
S
(см)
10 12.02 С 3 30 км ясно +11.8 +6.1 68 +11 +17 1021.9 999.6
11 12.02 С 4 30 км ясно +11.2 +6.1 71 +9 +14 1022.1 999.7
12 12.02 С 4 20 км ясно +11.6 +5.7 67 +10 +14 1021.8 999.5
13 12.02 С 8 30 км ясно +11.6 +4.8 63 +8 +10 1021.3 999.0
14 12.02 С 6 30 км ясно +12.0 +5.4 64 +9 +11 1021.3 999.0
15 12.02 С 6 20 км ясно +12.0 +3.0 54 +10 +10 1021.5 999.2
16 12.02 З 4 30 км ясно +11.4 +2.2 53 +10 +10 1022.4 1000.0
17 12.02 С 7 30 км ясно +11.8 +3.1 55 +9 +9 1022.3 1000.0
18 12.02 С 8 20 км ясно +11.8 +2.3 52 +9 +9 1022.9 1000.6 +12.5
19 12.02 С 6 30 км ясно +11.0 +2.6 56 +8 +8 1023.6 1001.2
20 12.02 З 5 30 км ясно +11.0 +4.7 65 +9 +9 1024.4 1002.0
21 12.02 З 5 30 км ясно +10.2 +6.0 75 +7 +7 1025.3 1002.8
22 12.02 В 6 30 км ясно +9.6 +5.2 74 +6 +6 1026.6 1004.0
23 12.02 СВ 5 30 км ясно +9.4 +4.8 73 +6 +6 1026.7 1004.1
00 13.02 В 6 30 км ясно +9.2 +4.0 70 +6 +6 1027.3 1004.7
01 13.02 СВ 4 30 км ясно +8.8 +3.8 71 +6 +6 1027.7 1005.0
02 13.02 СВ 5 30 км ясно +8.8 +3.8 71 +6 +6 1027.7 1005.0
03 13.02 СВ 5 30 км ясно +8.8 +3.8 71 +6 +6 1027.7 1005.0
04 13.02 СВ 5 30 км ясно +8.6 +3.8 72 +5 +5 1027.9 1005.2
05 13.02 СВ 3 30 км 1/1 450 м
[Sc diur, vesp]
+8.2 +3.3 71 +6 +6 1028.3 1005.6
06 13.02 СВ 4 20 км 1/1 600 м
[Sc diur, vesp]
+8.2 +3.5 72 +5 +5 1028.8 1006.1 +8.2
07 13.02 СВ 3 30 км 3/3 750 м
[Sc diur, vesp]
+9.0 +4.6 74 +7 +7 1029.3 1006.6
08 13.02 СВ 4 30 км ясно +9.2 +4.0 70 +7 +9 1030.2 1007.5
09 13.02 СВ 3 20 км ясно +10.4 +4.8 68 +8 +13 1030.4 1007.8
10 13.02 В 4 30 км ясно +11.0 +4.7 65 +9 +14 1030.8 1008.3
11 13.02 СВ 2 30 км ясно +11.8 +5.7 66 +11 +20 1031.1 1008.6
12 13.02 В 2 20 км ясно +13.0 +5.4 60 +13 +21 1030.5 1008.1
13 13.02 С 1 30 км ясно +12.0 +4.5 60 +12 +19 1029.7 1007.2
14 13.02 З 2 30 км ясно +12.0 +5.6 65 +11 +15 1029.6 1007.1
15 13.02 СЗ 2 20 км ясно +10.6 +4.5 66 +9 +11 1029.7 1007.1
16 13.02 СЗ 3 30 км ясно +10.4 +4.1 65 +9 +9 1029.4 1006.9
17 13.02 З 2 30 км ясно +10.0 +4.6 69 +9 +9 1029.1 1006.5
18 13.02 С 8 20 км ясно +10.8 +3.8 62 +7 +7 1029.2 1006.7 +13.0
19 13.02 С 9 20 км ясно +10.6 +4.7 67 +7 +7 1028.7 1006.2
20 13.02 СВ 5 20 км ясно +10.4 +6.0 74 +7 +7 1029.3 1006.8
21 13.02 В 6 20 км ясно +10.0 +6.0 76 +7 +7 1029.9 1007.3
22 13.02 В 4 20 км ясно +9.8 +5.4 74 +7 +7 1030.5 1007.9
23 13.02 В 4 15 км ясно +9.8 +5.6 75 +7 +7 1030.5 1007.9
00 14.02 В 4 20 км ясно +10.0 +5.2 72 +8 +8 1030.6 1008.0
01 14.02 В 4 15 км ясно +10.0 +5.2 72 +7 +7 1030.7 1008.1
03 14.02 СВ 3 30 км ясно +9.8 +6.0 77 +8 +8 1030.5 1007.9
04 14.02 СВ 4 15 км ясно +9.8 +6.2 78 +7 +7 1030.5 1007.9
06 14.02 СЗ 3 20 км ясно +10.0 +6.7 80 +8 +8 1030.7 1008.1 +9.8
07 14.02 СЗ 3 15 км ясно +9.8 +6.7 81 +8 +8 1030.8 1008.2
08 14.02 З 4 30 км ясно +10.8 +7.5 80 +9 +11 1030.9 1008.4
09 14.02 З 4 20 км 5/0
[Ci fib]
+11.4 +9.0 85 +9 +13 1031.5 1009.0
10 14.02 СЗ 2 30 км 5/0
[Ci fib]
+12.0 +9.9 87 +11 +17 1031.5 1009.0
11 14.02 СЗ 3 30 км ясно +12.4 +10.5 88 +11 +18 1031.5 1009.1
12 14.02 З 4 20 км ясно +12.4 +9.2 81 +11 +16 1031.3 1008.9
13 14.02 З 4 20 км 3/0
[Ci fib]
+13.4 +9.7 78 +12 +16 1030.2 1007.8
14 14.02 З 3 20 км 4/0
[Ci fib]
+12.6 +9.1 79 +11 +14 1030.2 1007.8
15 14.02 З 3 20 км 4/0
[Ci fib]
+11.8 +9.2 84 +10 +11 1030.1 1007.6
16 14.02 З 3 30 км 5/0
[Ci fib]
+10.6 +8.9 89 +8 +9 1029.5 1007.0
17 14.02 З 3 30 км 3/0
[Ci fib]
+10.2 +8.0 86 +8 +8 1029.6 1007.0
18 14.02 СЗ 4 20 км ясно +10.2 +9.1 93 +8 +8 1029.6 1007.0 +14.0
19 14.02 СЗ 5 20 км ясно +10.8 +9.1 89 +8 +8 1029.7 1007.1
20 14.02 СЗ 5 30 км ясно +10.6 +8.9 89 +8 +8 1029.5 1006.9
21 14.02 СЗ 5 30 км ясно +10.8 +9.7 93 +8 +8 1029.1 1006.5
23 14.02 З 3 30 км ясно +10.8 +10.5 98 +9 +9 1028.7 1006.1
01 15.02 0 30 км ясно +11.0 +11.0 100 1028.1 1005.6
02 15.02 штиль 0 20 км ясно +10.6 +10.3 98 +10 +10 1027.6 1005.1
03 15.02 0 30 км ясно +10.6 +10.0 96 1027.4 1004.9
04 15.02 штиль 0 20 км ясно +10.4 +10.0 97 +10 +10 1027.0 1004.5
05 15.02 0 30 км ясно +10.2 +9.9 98 1027.1 1004.5
06 15.02 штиль 0 20 км ясно +10.2 +9.9 98 +9 +9 1027.1 1004.5 +10.0
07 15.02 ЮВ 2 30 км 4/0
[Ac trans]
+11.2 +10.3 94 +10 +11 1027.0 1004.5
08 15.02 В 2 20 км ясно +12.6 +8.1 74 +12 +15 1027.2 1004.8
09 15.02 В 2 20 км 4/0 2000 м
[Ac trans]
+12.6 +6.9 68 +12 +16 1027.2 1004.8
10 15.02 В 3 20 км ясно +13.2 +6.1 62 +12 +19 1027.1 1004.7
11 15.02 В 2 20 км 3/0
[Ac trans]
+14.0 +4.9 54 +14 +20 1026.8 1004.5
12 15.02 В 4 20 км 5/0 2000 м
[Ac trans]
+14.6 +7.7 63 +14 +18 1026.3 1004.1
13 15.02 штиль 0 20 км 5/0
[Ac trans]
+14.8 +6.9 59 +15 +20 1025.3 1003.1
14 15.02 Ю 1 20 км 5/0
[Ac trans]
+14.6 +6.9 60 +16 +19 1024.7 1002.5
15 15.02 ЮВ 1 20 км 4/0
[Ac trans]
+12.8 +4.3 56 +13 +14 1024.6 1002.3
16 15.02 ЮЗ 1 20 км 4/0
[Ac trans]
+12.4 +4.4 58 +13 +14 1024.4 1002.0
17 15.02 Ю 2 20 км 3/0
[Ac trans]
+12.0 +5.9 66 +12 +12 1025.0 1002.6
18 15.02 ЮВ 3 20 км 3/0
[Ac trans]
+12.0 +7.7 75 +10 +10 1025.4 1003.0 +15.0
19 15.02 ЮВ 4 20 км 3/0
[Ac trans]
+11.8 +8.1 78 +10 +10 1025.4 1003.0
20 15.02 СВ 3 10 км 3/0
[Ac trans]
+11.8 +8.3 79 +10 +10 1026.5 1004.1
21 15.02 СВ 7 10 км 4/0 2000 м
[Ac trans]
+11.8 +8.1 78 +9 +9 1026.4 1004.0
22 15.02 СВ 7 15 км 3/0
[Ac trans]
+11.8 +8.3 79 +9 +9 1026.2 1003.8
23 15.02 С 3 10 км 3/0
[Ac trans]
+11.6 +9.0 84 +10 +10 1026.6 1004.2
00 16.02 СВ 5 10 км 3/0 2000 м
[Ac trans]
+11.4 +8.1 80 +9 +9 1027.5 1005.0
01 16.02 СВ 4 15 км 3/0
[Ac trans]
+11.2 +8.8 85 +9 +9 1027.5 1005.0
02 16.02 В 2 10 км 4/0
[Ac trans]
+11.4 +9.0 85 +10 +10 1027.6 1005.1
03 16.02 В 4 10 км 4/0 2000 м
[Ac trans]
+11.4 +9.1 86 +9 +9 1027.7 1005.2
04 16.02 В 2 20 км ясно +11.2 +7.9 80 +10 +10 1028.1 1005.6
05 16.02 СВ 4 20 км ясно +11.2 +7.9 80 +9 +9 1028.2 1005.7
06 16.02 ЮВ 3 20 км 5/0 2000 м
[Ac trans]
+10.4 +8.0 85 +8 +8 1028.2 1005.7 +10.0
07 16.02 В 4 20 км 4/0
[Ac trans]
+10.2 +8.0 86 +8 +8 1028.4 1005.8
08 16.02 В 1 20 км 5/3 500 м
[Cu med, cong Ac trans]
+11.6 +8.6 82 +12 +14 1029.5 1007.0
09 16.02 СЗ 1 20 км 5/0 2000 м
[Ac trans]
+12.2 +8.3 77 +12 +17 1029.4 1007.0
10 16.02 ЮЗ 1 20 км 6/0
[Ac trans]
+12.0 +9.2 83 +12 +17 1029.6 1007.1
11 16.02 З 2 20 км 5/0
[Ac trans]
+12.2 +9.9 86 +12 +18 1029.8 1007.4
12 16.02 З 2 20 км ясно +13.4 +9.3 76 +13 +21 1029.7 1007.4
13 16.02 З 2 20 км ясно +13.4 +9.5 77 +13 +20 1029.0 1006.6
14 16.02 З 2 20 км ясно +13.8 +10.2 79 +13 +17 1028.9 1006.6
15 16.02 З 2 20 км ясно +13.2 +10.2 82 +13 +14 1029.0 1006.6
16 16.02 З 2 20 км 1/1 300 м
[Cu hum]
+12.0 +10.3 89 +11 +11 1028.7 1006.2
17 16.02 З 4 20 км 3/3 300 м
[Cu hum]
+11.6 +10.5 93 +9 +9 1028.6 1006.1
18 16.02 СЗ 5 20 км ясно +11.6 +9.9 89 +9 +9 1028.7 1006.2 +14.0
19 16.02 СЗ 2 20 км ясно +11.4 +10.1 92 +10 +10 1028.8 1006.3
20 16.02 СЗ 4 20 км ясно +11.2 +10.1 93 +9 +9 1029.1 1006.6
21 16.02 СЗ 4 20 км ясно +10.6 +9.7 94 +8 +8 1029.5 1007.0
22 16.02 СЗ 2 20 км ясно +10.8 +10.0 95 +9 +9 1029.5 1007.0
23 16.02 СЗ 6 20 км ясно +10.6 +8.9 89 +7 +7 1029.7 1007.1
00 17.02 СЗ 3 20 км ясно +11.0 +9.3 89 +9 +9 1029.7 1007.1
01 17.02 СЗ 2 20 км ясно +10.6 +9.2 91 +9 +9 1029.6 1007.0
02 17.02 СЗ 2 20 км ясно +10.4 +8.0 85 +9 +9 1029.5 1006.9
03 17.02 С 4 20 км ясно +10.2 +9.1 93 +8 +8 1028.7 1006.1
04 17.02 С 2 20 км ясно +10.2 +8.8 91 +9 +9 1028.9 1006.3
05 17.02 С 1 20 км ясно +10.4 +9.8 96 +10 +10 1028.9 1006.3
06 17.02 СЗ 3 20 км ясно +10.2 +9.4 95 +8 +8 1028.9 1006.3 +10.0
07 17.02 З 2 20 км ясно +10.6 +10.1 97 +9 +11 1029.2 1006.6
08 17.02 СЗ 2 20 км ясно +11.0 +9.3 89 +10 +13 1029.4 1006.9
09 17.02 З 2 20 км ясно +11.4 +9.3 87 +10 +16 1029.5 1007.0
10 17.02 З 2 20 км 4/4 300 м
[Cu hum]
+12.2 +10.8 91 +11 +16 1029.6 1007.1
11 17.02 З 2 20 км 6/6 300 м
[Cu hum]
+13.0 +10.5 85 +12 +15 1029.5 1007.1
12 17.02 СЗ 5 20 км ясно +12.4 +10.1 86 +10 +15 1028.9 1006.5
13 17.02 З 2 20 км 4/0
[Ac trans]
+12.4 +10.6 89 +11 +16 1028.4 1006.0
14 17.02 З 4 20 км 5/5 300 м
[Cu hum]
+12.8 +10.9 88 +11 +12 1027.7 1005.4
15 17.02 З 4 20 км 3/0
[Ac trans]
+12.8 +10.9 88 +11 +12 1028.0 1005.7
16 17.02 З 2 20 км 3/0
[Ac trans]
+11.6 +9.9 89 +10 +10 1027.5 1005.1
17 17.02 З 2 10 км ясно +11.0 +9.7 92 +10 +10 1027.5 1005.0
18 17.02 З 4 20 км ясно +10.6 +9.7 94 +8 +8 1027.5 1005.0 +13.5
19 17.02 З 4 20 км ясно +10.6 +10.1 97 +8 +8 1027.5 1005.0
20 17.02 СЗ 2 20 км ясно +10.4 +10.0 97 +9 +9 1027.5 1005.0
21 17.02 З 2 10 км ясно +10.8 +10.0 95 +9 +9 1027.7 1005.2
22 17.02 З 2 20 км ясно +10.4 +9.6 95 +9 +9 1027.8 1005.3
23 17.02 З 2 20 км ясно +10.4 +9.8 96 +9 +9 1027.8 1005.3
00 18.02 З 2 10 км 4/0
[Ac trans]
+10.2 +9.9 98 +8 +8 1027.7 1005.1
01 18.02 З 2 10 км 4/0
[Ac trans]
+10.2 +9.9 98 +8 +8 1027.7 1005.1
02 18.02 З 1 10 км 3/0
[Ac trans]
+10.2 +9.9 98 +10 +10 1027.6 1005.0
03 18.02 З 3 10 км 4/0 2000 м
[Ac trans]
+10.2 +9.6 96 +8 +8 1027.6 1005.0
04 18.02 З 1 10 км 5/0
[Ac trans]
+10.4 +9.8 96 +10 +10 1026.8 1004.3
05 18.02 З 2 10 км 6/0
[Ac trans]
+10.8 +10.2 96 +10 +10 1027.0 1004.5
06 18.02 СЗ 2 10 км 8/4 600 м
[Sc Ac trans]
+10.2 +9.4 95 +9 +9 1026.6 1004.1 +9.8
07 18.02 СЗ 1 10 км 8/5 540 м
[Sc Ac trans]
+10.2 +8.8 91 +11 +11 1026.5 1004.0
08 18.02 З 1 10 км 9/5 500 м
[Sc Ac trans]
+10.6 +9.0 90 +11 +12 1026.5 1004.0
09 18.02 З 1 10 км 9/6 500 м
[Sc Ac trans]
+11.0 +9.3 89 +12 +13 1027.2 1004.7
10 18.02 З 2 10 км 9/6 570 м
[Sc Ac trans]
+11.8 +9.0 83 +11 +13 1026.7 1004.3
11 18.02 З 1 10 км 9/6 540 м
[Sc Ac trans]
+11.8 +8.3 79 +12 +14 1026.9 1004.5
12 18.02 З 3 10 км 9/6 540 м
[Sc Ac trans]
+12.2 +8.3 77 +11 +13 1026.3 1003.9
13 18.02 0 10 км 10/5 450 м
[Cu med, cong Ac trans]
+12.6 +8.5 76 1025.5 1003.2
14 18.02 З 1 10 км 10/5 300 м
[Cu med, cong Ac trans]
+12.4 +8.5 77 +12 +13 1025.3 1003.0
15 18.02 З 1 10 км 10/5 450 м
[Cu med, cong Ac trans]
+12.0 +8.7 80 +12 +12 1025.2 1002.9
16 18.02 З 2 10 км 10/5 450 м
[Cu med, cong Ac trans]
+11.8 +8.8 82 +11 +11 1024.7 1002.3
17 18.02 СЗ 1 10 км 10/0 300 м
[]
+11.2 +8.3 82 +11 +11 1024.4 1002.0
18 18.02 З 3 10 км 10/5 300 м
[Cu hum Ac trans]
+11.0 +8.4 84 +9 +9 1024.6 1002.2 +13.0
19 18.02 З 3 10 км 10/5 270 м
[Cu med, cong Ac trans]
+10.8 +8.7 87 +9 +9 1024.4 1002.0
20 18.02 СЗ 1 10 км 10/0 270 м
[]
+10.4 +8.3 87 +10 +10 1024.7 1002.2
21 18.02 З 1 10 км 9/0 450 м
[]
+10.2 +8.1 87 +10 +10 1024.8 1002.3
22 18.02 З 2 10 км 9/9 300 м
[Cu med, cong]
+10.2 +8.0 86 +9 +9 1024.9 1002.4
23 18.02 З 2 10 км 9/9 450 м
[Cu med, cong]
+10.2 +8.0 86 +9 +9 1024.9 1002.4
00 19.02 СЗ 2 10 км 9/0 300 м
[]
+10.0 +8.1 88 +8 +8 1024.7 1002.2
01 19.02 З 3 10 км 9/9 450 м
[Cu med, cong]
+10.0 +7.9 87 +8 +8 1024.7 1002.2
03 19.02 СЗ 1 4000 м дымка 9/9 300 м
[Cu med, cong]
+10.2 +7.8 85 +10 +10 1023.7 1001.2
04 19.02 СЗ 2 4000 м дымка 9/9 300 м
[Cu med, cong]
+10.0 +7.6 85 +9 +9 1023.6 1001.1
06 19.02 штиль 0 4000 м дымка 10/5 300 м
[Cu med, cong Ac trans]
+10.2 +7.8 85 +10 +10 1023.6 1001.1 +10.0
07 19.02 0 8000 м дымка 10/5 300 м
[Cu med, cong Ac trans]
+10.0 +7.6 85 1023.7 1001.2
08 19.02 штиль 0 4000 м дымка 10/10 270 м
[St]
+10.4 +7.8 84 +10 +10 1024.5 1002.0

 

Местоположение метеостанции Понца (Италия): широта 40.92 долгота 12.95 высота над уровнем моря 185 м.

В архиве по умолчанию представлена погода на Понце за последнюю неделю. Архивные данные за месяц целиком и за предыдущие месяцы, начиная с января 2011 года, Вы можете получить, выбрав интересующий диапазон дат из раскрывающегося списка и нажав кнопку "Ввод!".


*Определитесь, кто Вы:
робот инопланетянин человек

Внимание! Время в таблицах - всемирное. Для получения местного времени необходимо прибавить поправку, которая равна 1 ч.

Смотрите также архив погоды в соседних городах и на ближайших метеорологических станциях:

Погода в Торре-Олеволе (Италия) (39 км)
Погода в Латине (Италия) (70 км)
Погода в Латине 2 (Италия) (70 км)
Погода во Фрозиноне (Италия) (84 км)
Погода в Пратика-ди-Маре (Италия) (91 км)
Погода в Граццанизе (Италия) (95 км)
Погода на Капри (Италия) (113 км)
Погода в Неаполе (Италия) (114 км)
Погода в Риме (Италия) (115 км)
Погода в Казерте (Италия) (116 км)

Пояснения к столбцам:

Ветер - указаны скорость ветра в м/с - средняя за 10 мин, порывы в срок и между сроками (в фигурных скобках) и направление, откуда дует ветер: С - северный, СВ - северо-восточный, В - восточный, ЮВ - юго-восточный, Ю - южный, ЮЗ - юго-западный, З - западный, СЗ - северо-западный.
Видимость - горизонтальная дальность видимости в метрах или километрах. При видимости от 1 до 10 км при отсутствии осадков обычно наблюдается дымка, при ухудшении видимости до 1 км и менее - туман. В сухую погоду видимость может ухудшаться дымом, пылью или мглою.
Явления - указаны атмосферные явления, наблюдавшиеся в срок или в последний час перед сроком; фигурными скобками обозначены явления, наблюдавшиеся между сроками (за 1-3 часа до срока); квадратными скобками обозначены град или гололедные отложения с указанием их диаметра в мм.
Облачность - указаны через наклонную черту общая и нижняя облачность в баллах и высота нижней границы облаков в метрах; квадратными скобками обозначены формы облаков: Ci - перистые, Cs - перисто-слоистые, Cc - перисто-кучевые, Ac - высококучевые, As - высокослоистые, Sc - слоисто-кучевые, Ns - слоисто-дождевые, Cu - кучевые, Cb - кучево-дождевые. Подробнее классификацию облаков см. в Атласе облаков (PDF).
T - Температура воздуха - температура, измеренная на высоте 2 м над землей.
Td - Температура точки росы - температура, при понижении до которой содержащийся в воздухе водяной пар достигнет насыщения.
f - Относительная влажность воздуха - влажноcть воздуха, измеренная на высоте 2 м над землей.
Te - Эффективная температура - температура, которую ощущает одетый по сезону человек в тени. Характеристика душности погоды. При расчете учитывается влияние влажности воздуха и скорости ветра на теплоощущения человека.
Tes - Эффективная температура на солнце - температура, которую ощущает человек, с поправкой на солнечный нагрев. Характеристика знойности погоды. Зависит от высоты солнца над горизонтом, облачности и скорости ветра. Ночью, в пасмурную погоду, а также при ветре 12 м/с и более поправка равна нулю.
P - Атмосферное давление - приведенное к уровню моря атмосферное давление.
Po - Атмосферное давление - измеренное на уровне метеостанции атмосферное давление.
Tmin - Минимальная температура - минимум температуры воздуха на высоте 2 м над землей.
Tmax - Максимальная температура - максимум температуры воздуха на высоте 2 м над землей.
R - Количество осадков - Количество выпавших осадков за период времени, мм. При наведении курсора мыши на число - период времени, за который выпало указанное количество осадков.
R24 - Количество осадков - Количество выпавших осадков за 24 часа, мм.
S - Снежный покров - Высота снежного покрова, см. При наведении курсора мыши на число - состояние снежного покрова и степень покрытия местности в баллах.